Previsão horária em Abaete

Hoje, 14 Abril, Quarta-feira

Tempo Temperatura Precipitação Vento Pressão Humidade
00:00 +21°C° 0 mm 1 m/s 707 mmHg 71%
01:00 +20°C° 0 mm 1 m/s 707 mmHg 75%
02:00 +20°C° 0 mm 1 m/s 707 mmHg 78%
03:00 +19°C° 0 mm 1 m/s 707 mmHg 82%
04:00 +19°C° 0 mm 1 m/s 707 mmHg 84%
05:00 +19°C° 0 mm 1 m/s 707 mmHg 86%
06:00 +19°C° 0 mm 1 m/s 707 mmHg 88%
07:00 +21°C° 0 mm 1 m/s 708 mmHg 80%
08:00 +23°C° 0 mm 2 m/s 708 mmHg 72%
09:00 +25°C° 0 mm 2 m/s 709 mmHg 64%
10:00 +26°C° 0 mm 2 m/s 709 mmHg 59%
11:00 +28°C° 0 mm 2 m/s 709 mmHg 54%
12:00 +29°C° 0 mm 2 m/s 709 mmHg 49%
13:00 +29°C° 0 mm 2 m/s 708 mmHg 49%
14:00 +29°C° 0 mm 2 m/s 707 mmHg 48%
15:00 +29°C° 0 mm 2 m/s 707 mmHg 48%
16:00 +28°C° 0 mm 2 m/s 707 mmHg 55%
17:00 +26°C° 0 mm 2 m/s 707 mmHg 62%
18:00 +24°C° 0 mm 2 m/s 707 mmHg 69%
19:00 +24°C° 0 mm 2 m/s 707 mmHg 71%
20:00 +23°C° 0 mm 2 m/s 707 mmHg 72%
21:00 +23°C° 0 mm 1 m/s 708 mmHg 74%
22:00 +21°C° 0 mm 2 m/s 708 mmHg 76%
23:00 +20°C° 0 mm 2 m/s 707 mmHg 79%

Amanhã, 15 Abril, Quinta-feira

Tempo Temperatura Precipitação Vento Pressão Humidade
00:00 +20°C° 0 mm 2 m/s 707 mmHg 82%
01:00 +19°C° 0 mm 2 m/s 707 mmHg 84%
02:00 +18°C° 0 mm 2 m/s 707 mmHg 86%
03:00 +18°C° 0 mm 2 m/s 707 mmHg 88%
04:00 +17°C° 0 mm 2 m/s 707 mmHg 89%
05:00 +17°C° 0 mm 2 m/s 707 mmHg 90%
06:00 +17°C° 0 mm 2 m/s 708 mmHg 91%
07:00 +19°C° 0 mm 2 m/s 708 mmHg 82%
08:00 +21°C° 0 mm 2 m/s 709 mmHg 73%
09:00 +24°C° 0 mm 2 m/s 709 mmHg 65%
10:00 +26°C° 0 mm 2 m/s 709 mmHg 59%
11:00 +28°C° 0 mm 2 m/s 709 mmHg 52%
12:00 +30°C° 0 mm 1 m/s 709 mmHg 46%
13:00 +30°C° 0 mm 1 m/s 708 mmHg 43%
14:00 +31°C° 0 mm 1 m/s 707 mmHg 41%
15:00 +31°C° 0 mm 1 m/s 707 mmHg 39%
16:00 +29°C° 0 mm 1 m/s 706 mmHg 45%
17:00 +28°C° 0 mm 2 m/s 706 mmHg 51%
18:00 +26°C° 0 mm 2 m/s 706 mmHg 57%
19:00 +25°C° 0 mm 2 m/s 707 mmHg 59%
20:00 +24°C° 0 mm 2 m/s 707 mmHg 62%
21:00 +23°C° 0 mm 1 m/s 707 mmHg 64%
22:00 +22°C° 0 mm 1 m/s 707 mmHg 66%
23:00 +20°C° 0 mm 2 m/s 707 mmHg 68%

Depois de amanhã, 16 Abril, Sexta-feira

Tempo Temperatura Precipitação Vento Pressão Humidade
00:00 +19°C° 0 mm 2 m/s 707 mmHg 70%
01:00 +19°C° 0 mm 2 m/s 707 mmHg 74%
02:00 +19°C° 0 mm 1 m/s 707 mmHg 77%
03:00 +18°C° 0 mm 1 m/s 707 mmHg 80%
04:00 +18°C° 0 mm 1 m/s 707 mmHg 82%
05:00 +18°C° 0 mm 1 m/s 707 mmHg 84%
06:00 +16°C° 0 mm 1 m/s 707 mmHg 86%
07:00 +19°C° 0 mm 1 m/s 708 mmHg 77%
08:00 +22°C° 0 mm 1 m/s 709 mmHg 69%
09:00 +24°C° 0 mm 2 m/s 709 mmHg 61%
10:00 +26°C° 0 mm 1 m/s 709 mmHg 55%
11:00 +27°C° 0 mm 1 m/s 709 mmHg 49%
12:00 +29°C° 0 mm 1 m/s 708 mmHg 43%
13:00 +30°C° 0 mm 1 m/s 708 mmHg 42%
14:00 +30°C° 0 mm 1 m/s 707 mmHg 40%
15:00 +31°C° 0 mm 1 m/s 706 mmHg 38%
16:00 +29°C° 0 mm 1 m/s 706 mmHg 43%
17:00 +27°C° 0 mm 1 m/s 706 mmHg 48%
18:00 +26°C° 0 mm 1 m/s 706 mmHg 53%
19:00 +25°C° 0 mm 1 m/s 706 mmHg 55%
20:00 +24°C° 0 mm 1 m/s 706 mmHg 57%
21:00 +23°C° 0 mm 1 m/s 706 mmHg 59%
22:00 +22°C° 0 mm 1 m/s 707 mmHg 62%
23:00 +21°C° 0 mm 1 m/s 707 mmHg 65%

17 Abril, Sábado

Tempo Temperatura Precipitação Vento Pressão Humidade
00:00 +20°C° 0 mm 1 m/s 707 mmHg 68%
01:00 +19°C° 0 mm 1 m/s 707 mmHg 70%
02:00 +19°C° 0 mm 1 m/s 706 mmHg 72%
03:00 +16°C° 0 mm 0 m/s 706 mmHg 74%
04:00 +16°C° 0 mm 0 m/s 706 mmHg 75%
05:00 +16°C° 0 mm 1 m/s 707 mmHg 77%
06:00 +16°C° 0 mm 1 m/s 707 mmHg 79%
07:00 +19°C° 0 mm 1 m/s 708 mmHg 71%
08:00 +22°C° 0 mm 1 m/s 708 mmHg 63%
09:00 +24°C° 0 mm 1 m/s 709 mmHg 55%
10:00 +26°C° 0 mm 1 m/s 709 mmHg 49%
11:00 +28°C° 0 mm 1 m/s 708 mmHg 44%
12:00 +28°C° 0 mm 0 m/s 708 mmHg 38%
13:00 +31°C° 0 mm 1 m/s 707 mmHg 37%
14:00 +31°C° 0 mm 1 m/s 707 mmHg 36%
15:00 +31°C° 0 mm 1 m/s 706 mmHg 35%
16:00 +29°C° 0 mm 1 m/s 706 mmHg 40%
17:00 +27°C° 0 mm 1 m/s 706 mmHg 45%
18:00 +25°C° 0 mm 1 m/s 706 mmHg 50%
19:00 +25°C° 0 mm 1 m/s 706 mmHg 51%
20:00 +24°C° 0 mm 1 m/s 706 mmHg 52%
21:00 +23°C° 0 mm 1 m/s 706 mmHg 53%
22:00 +23°C° 0 mm 1 m/s 706 mmHg 55%
23:00 +22°C° 0 mm 1 m/s 706 mmHg 56%

18 Abril, Domingo

Tempo Temperatura Precipitação Vento Pressão Humidade
00:00 +22°C° 0 mm 1 m/s 706 mmHg 58%
01:00 +21°C° 0 mm 1 m/s 706 mmHg 61%
02:00 +18°C° 0 mm 0 m/s 706 mmHg 63%
03:00 +18°C° 0 mm 0 m/s 705 mmHg 66%
04:00 +17°C° 0 mm 0 m/s 706 mmHg 68%
05:00 +17°C° 0 mm 0 m/s 706 mmHg 69%
06:00 +19°C° 0 mm 1 m/s 706 mmHg 71%
07:00 +21°C° 0 mm 1 m/s 707 mmHg 65%
08:00 +23°C° 0 mm 1 m/s 707 mmHg 60%
09:00 +25°C° 0 mm 1 m/s 708 mmHg 55%
10:00 +27°C° 0 mm 1 m/s 707 mmHg 49%
11:00 +29°C° 0 mm 1 m/s 707 mmHg 44%
12:00 +31°C° 0 mm 2 m/s 707 mmHg 39%
13:00 +31°C° 0 mm 1 m/s 706 mmHg 38%
14:00 +32°C° 0 mm 1 m/s 706 mmHg 37%
15:00 +32°C° 0 mm 1 m/s 705 mmHg 36%
16:00 +30°C° 0 mm 1 m/s 705 mmHg 41%
17:00 +28°C° 0 mm 1 m/s 705 mmHg 46%
18:00 +27°C° 0 mm 1 m/s 705 mmHg 52%
19:00 +26°C° 0.1 mm 1 m/s 705 mmHg 55%
20:00 +25°C° 0.1 mm 1 m/s 705 mmHg 58%
21:00 +22°C° 0.1 mm 0 m/s 705 mmHg 61%
22:00 +22°C° 0.1 mm 0 m/s 705 mmHg 63%
23:00 +21°C° 0.1 mm 0 m/s 705 mmHg 65%

19 Abril, Segunda-feira

Tempo Temperatura Precipitação Vento Pressão Humidade
00:00 +21°C° 0.1 mm 0 m/s 705 mmHg 68%
01:00 +22°C° 0.1 mm 1 m/s 705 mmHg 72%
02:00 +22°C° 0.1 mm 1 m/s 705 mmHg 76%
03:00 +21°C° 0.1 mm 1 m/s 705 mmHg 80%
04:00 +21°C° 0.6 mm 1 m/s 705 mmHg 84%
05:00 +20°C° 0.6 mm 1 m/s 706 mmHg 88%
06:00 +20°C° 0.6 mm 1 m/s 706 mmHg 92%
07:00 +20°C° 1.1 mm 1 m/s 707 mmHg 93%
08:00 +20°C° 1.1 mm 1 m/s 707 mmHg 94%
09:00 +19°C° 1.1 mm 2 m/s 708 mmHg 95%
10:00 +19°C° 0.7 mm 2 m/s 707 mmHg 95%
11:00 +20°C° 0.7 mm 2 m/s 707 mmHg 94%
12:00 +20°C° 0.7 mm 2 m/s 707 mmHg 94%
13:00 +20°C° 0.1 mm 2 m/s 706 mmHg 92%
14:00 +21°C° 0.1 mm 1 m/s 706 mmHg 91%
15:00 +21°C° 0.1 mm 1 m/s 706 mmHg 90%
16:00 +21°C° 0.1 mm 1 m/s 705 mmHg 92%
17:00 +21°C° 0.1 mm 1 m/s 705 mmHg 94%
18:00 +20°C° 0.1 mm 1 m/s 705 mmHg 95%
19:00 +20°C° 0 mm 1 m/s 706 mmHg 95%
20:00 +20°C° 0 mm 1 m/s 706 mmHg 95%
21:00 +20°C° 0 mm 1 m/s 706 mmHg 95%
22:00 +18°C° 0.4 mm 0 m/s 706 mmHg 96%
23:00 +18°C° 0.4 mm 0 m/s 706 mmHg 96%
Mostrar mais

Necessitamos do seu Consentimento

A Meteoprog e os seus Fornecedores de Serviços podem armazenar e aceder a dados pessoais como cookies, identificadores do dispositivo ou outras tecnologias semelhantes existentes no seu dispositivo e processar estes dados para personalizar conteúdos e anúncios, assim como funcionalidades nas redes sociais e análise de tráfego.

  • Armazenar e/ou aceder a informações no seu dispositivo

    Os cookies, identificadores do dispositivo ou outras informações podem ser armazenados ou acedidos no seu dispositivo, para os fins acima indicados.

  • Anúncios e conteúdos personalizados, medição de anúncios e conteúdos, dados sobre o público-alvo e desenvolvimento de produtos

    Os anúncios e os conteúdos podem ser personalizados com base num perfil. Podem ser adicionados dados adicionais para uma maior personalização dos anúncios e dos conteúdos. A eficácia dos anúncios e dos conteúdos pode ser medida. Podem ser obtidas informações sobre o público que visualizou os anúncios e os conteúdos. Estes dados podem ser usados para desenvolver ou melhorar sistemas, softwares ou a experiência do utilizador.

Ao clicar em "Eu concordo”, permitirá o uso de cookies, identificadores do dispositivo e web beacons mencionados ou outras tecnologias semelhantes. As configurações do navegador do seu dispositivo podem ser alteradas.

Para certos fins, podem ser invocados interesses legítimos ao invés de consentimento. Pode ler mais informação sobre este assunto na nossa Política de Privacidade e Cookies.